Flag for Switzerland Weather past 2 weeks in Mendrisio, Ticino, Switzerland

Now
38 °F

Chilly.


Feels Like: 38 °F
Forecast: 41 / 54 °F
Wind: 1 mph from Southwest

Location: Stabio

Current Time: Oct 24, 2014 at 9:13:16 AM

Latest Report: Oct 24, 2014 at 8:00 AM


Visibility: N/A

Pressure: 29.98 "Hg

Humidity: 89%

Dew point: 35 °F

Location of MendrisioLocation

Historic Weather in Mendrisio — Graph

°F

Mendrisio temperature yesterday

Maximum temperature yesterday: 66 °F (at 4:00 PM)
Minimum temperature yesterday: 51 °F (at 12:00 AM)
Average temperature yesterday: 60 °F

Past Weeks' High & Low Weather Summary

 TemperatureHumidityPressure
High73 °F (Oct 17, 4:00 PM)100% (Oct 20, 4:00 AM)30.32 "Hg (Oct 20, 4:00 AM)
Low38 °F (Oct 24, 8:00 AM)22% (Oct 23, 2:00 PM)29.67 "Hg (Oct 22, 1:00 AM)
Average60 °F82%30.00 "Hg
* Reported Oct 9 8:00 AM — Oct 24 8:00 AM, Mendrisio, Weather by CustomWeather, © 2014

Note: Actual official high and low records may vary slightly from our data, if they occured in-between our weather recording intervals... More about our weather records

Advertising

Mendrisio weather history for previous 24 hours

 ConditionsComfort  
Time TempWeatherWind HumidityBarometerVisibility
8:00 AM
Oct 24
38 °FChilly.1 mph89%29.98 "HgN/A
7:00 AM40 °FQuite cool.2 mph86%29.96 "HgN/A
6:00 AM41 °FQuite cool.2 mph85%29.96 "HgN/A
5:00 AM42 °FQuite cool.2 mph83%29.95 "HgN/A
4:00 AM45 °FCool.3 mph73%29.95 "HgN/A
3:00 AM47 °FCool.2 mph67%29.94 "HgN/A
2:00 AM51 °FCool.1 mph56%29.92 "HgN/A
1:00 AM59 °FRefreshingly cool.6 mph37%29.89 "HgN/A
12:00 AM63 °FMild.12 mph27%29.89 "HgN/A
11:00 PM
Oct 23
62 °FRefreshingly cool.9 mph29%29.90 "HgN/A
10:00 PM62 °FRefreshingly cool.2 mph28%29.90 "HgN/A
9:00 PM62 °FMild.5 mph27%29.89 "HgN/A
8:00 PM62 °FRefreshingly cool.3 mph28%29.89 "HgN/A
7:00 PM62 °FRefreshingly cool.7 mph27%29.87 "HgN/A
6:00 PM64 °FMild.12 mph26%29.84 "HgN/A
5:00 PM65 °FMild.5 mph24%29.84 "HgN/A
4:00 PM66 °FMild.10 mph23%29.83 "HgN/A
3:00 PM66 °FMild.8 mph23%29.82 "HgN/A
2:00 PM66 °FMild.6 mph22%29.84 "HgN/A
1:00 PM65 °FMild.17 mph23%29.85 "HgN/A
12:00 PM64 °FMild.13 mph23%29.86 "HgN/A
11:00 AM62 °FMild.7 mph25%29.87 "HgN/A
10:00 AM61 °FRefreshingly cool.9 mph27%29.88 "HgN/A
9:00 AM59 °FRefreshingly cool.8 mph28%29.88 "HgN/A
Weather by CustomWeather, © 2014

See weather overviewHow to use our weather pages